Location: Newark
(27.2452°N, 107.0032°W)
Time: 23:12:58
(UTC+00:00)

Hubble Space Telescope - Pass Details

Date: 17 December 2019
Orbit: 536 x 540 km, 28.5° (Epoch: 23 January)

Event Time Altitude Azimuth Distance (km) Brightness Sun altitude
Exits shadow 11:06:11 13° 87° (E) 1,626 3.9 -35.6°
Drops below altitude 10° 11:06:36 10° 85° (E) 1,785 4.1 -35.6°
Sets 11:08:54 0° 81° (E) 2,677 5.2 -35.1°
